ATLAS D R/B, 2328

Orbit data source: Space-Track

ATLAS D R/B, 2328 is space debris in LEO originally from a launch on Thu, 14 Jul 1966 UTC launched from the Air Force Western Test Range (AFWTR). Debris objects in space refer to the collection of defunct objects orbiting the Earth. Examples of debris include non-operational satellites, rocket bodies, and fragments generated from explosions, collisions, or faulty payload assembly.

Loading next visibility...
Identifier
2328, 1966-063C
Orbit
LEO
Country
Flag of USUS
Related business
Manufacturer
ABL
Mission
Spacecraft
Bus & Motor
ALTAIR, Unknown motor
Mass
~125 kg wet, ~125 kg dry
Launch date (UTC)
1966-07-14 (60 years ago)
Launch vehicle
Unknown
Launch site
Air Force Western Test Range (AFWTR)
Object type
Payload
Rocket body
Debris
Shape & HBR
Unknown
Radar Cross Section
Medium (>0.1 m² and <1 m²)

Expand to show TLE details & history
Last TLE update: 18 hours ago

TLE from 18 hours ago
0 ATLAS D R/B
1 02328U 66063C   26037.15602361  .00000272  00000-0  27741-4 0  9994
2 02328 144.2307 119.9470 0009888 352.3416  38.0364 13.69973584982273
Epoch: 2026-02-06T03:44Z
TLE epoch observation values (Epoch: 2026-02-06T03:44:40.439Z)
Latitude
17.28714°
Longitude
-97.97188°
Altitude
992.386 km
Speed
7.362 km/s
True Right ascension
06h 17m 58s
True Declination
17° 11' 34"
Sunlit
Object was in full shadow at epoch
Visualization orbit readout
Latitude
Unknown
Longitude
Unknown
Altitude
Unknown
Speed
Unknown
Apparent Right ascension
Unknown
Apparent Declination
Unknown
Sunlit
N/A
Visualization observer readout
Local Sidereal Time
23:54:31
Azimuth
Unknown
Elevation
Unknown
Doppler factor
Unknown
Orbital elements
Apogee altitude
1,009.879 km
Perigee altitude
995.283 km
Semi-major axis
7,380.718 km
Eccentricity
0.00099
Inclination
144.2307°
RAAN
119.947°
Arg. of periapsis
352.3416°
True anomaly
38.10628°
Mean anomaly
38.0364°
Eccentric anomaly
38.07134°
Mean motion
3.42291 °/min
Orbital period
105.17 mins
BSTAR
0.000027741
Loading maneuver chart data...
Computing Atmospheric mass density...
Loading historical data...
Loading historical data...
Loading historical data...
Loading historical data...
Loading historical data...
Loading historical data...
Loading historical data...

Documentation

Showing up to 5 results
|